Temperature
16 16 16 16 16 16 16 16 16 16 16 16 16 16 16 16 16 16 16 16 16 16 16 16 16 17 17 17 17 17 17 17 17 17 17 17 17 17 17 17 17 17 17
16 16 16 16 16 16 16 16 16 16 16 16 16 16 16 16 16 16 16 16 16 16 16 16 16 17 17 17 16 16 17 17 17 17 17 17 17 17 17 17 17 17 17
16 16 16 16 16 16 16 16 16 16 16 16 15 15 15 15 15 15 15 16 16 16 16 16 16 16 16 16 16 16 16 16 16 16 16 16 16 16 17 17 17 17 17
16 16 16 16 16 16 16 16 16 16 15 15 15 15 15 15 15 15 15 15 16 15 16 16 16 16 16 16 16 16 16 16 16 16 16 16 16 16 16 16 16 17 17
16 16 16 16 16 16 16 15 15 15 15 15 15 15 15 15 15 15 15 15 15 15 15 15 15 15 16 16 16 16 16 16 16 16 16 16 16 16 16 16 16 16 16
16 16 16 16 15 15 15 15 15 15 15 15 15 15 15 15 15 15 15 15 15 15 15 15 15 15 15 15 15 16 16 15 15 16 16 16 16 16 16 16 16 16 16
16 16 16 15 15 15 15 15 15 15 15 15 15 14 14 14 14 14 14 14 14 14 15 15 15 15 15 15 15 15 15 15 15 15 15 15 15 15 15 16 16 16 16
15 15 15 15 15 15 15 15 15 15 15 15 15 15 14 14 14 14 14 14 14 14 14 14 15 15 15 15 15 15 15 15 15 15 15 15 15 15 15 15 15 15 15
15 15 15 15 15 15 15 15 15 15 15 15 15 15 14 14 13 13 14 14 14 14 14 14 14 15 15 15 15 15 15 15 15 15 15 15 15 15 15 15 15 15 15
15 15 15 15 15 15 15 15 15 15 15 15 15 15 15 15 14 14 13 14 14 14 14 14 14 14 14 15 15 14 14 15 15 15 15 15 15 15 15 15 15 15 15
15 15 15 15 15 15 15 15 15 15 15 15 15 15 15 15 15 14 13 13 13 14 14 14 14 14 14 14 14 14 14 14 15 15 15 15 15 15 15 15 15 15 15
15 15 15 15 15 15 15 15 15 15 15 15 15 15 15 15 15 15 14 14 13 13 13 13 13 14 14 14 14 14 14 14 14 14 14 14 14 15 14 14 14 14 14
16 15 15 15 15 15 15 15 15 15 15 15 15 15 15 15 15 15 15 14 14 13 13 13 13 13 13 14 14 14 14 14 14 14 14 14 14 14 14 14 14 14 14
16 16 16 15 15 15 15 15 15 15 15 15 15 15 15 15 15 15 15 14 14 13 13 13 13 13 13 13 13 14 14 14 14 14 14 14 14 14 14 14 14 14 14
16 16 16 16 15 15 15 15 15 15 15 15 15 15 15 15 15 15 15 14 14 14 13 13 13 13 13 13 13 13 13 13 13 13 13 13 13 13 13 13 13 13 14
16 16 16 16 15 15 15 15 15 15 15 15 15 15 15 15 15 14 14 14 14 14 14 13 13 13 13 13 13 13 13 13 13 13 13 13 13 13 13 13 13 13 13
16 16 16 16 16 16 15 15 15 15 15 15 15 15 15 15 15 14 14 14 14 14 14 13 13 13 13 13 13 13 13 13 13 13 13 13 13 13 13 13 13 13 13
16 16 16 16 16 16 16 15 15 15 15 15 15 15 15 14 14 14 14 14 14 14 14 13 13 13 13 13 13 13 13 13 13 12 12 12 12 12 12 12 12 12 12
16 16 16 16 16 16 16 15 15 15 15 15 15 15 15 14 14 14 14 14 14 14 13 13 13 13 13 13 13 13 13 12 12 12 12 12 12 12 12 12 12 12 12
16 16 16 16 16 16 16 15 15 15 15 15 15 15 15 14 14 14 14 14 14 13 13 13 13 13 13 12 12 12 12 12 12 12 12 12 12 12 12 12 12 11 11
16 16 16 16 16 16 16 15 15 15 15 15 15 14 14 14 14 14 14 13 13 13 13 13 13 13 13 12 12 12 12 12 12 12 12 12 12 12 12 11 11 11 11
16 16 16 16 16 16 15 15 15 15 15 14 14 14 14 14 14 14 13 13 13 13 13 13 13 12 12 12 12 12 12 12 12 11 11 12 11 11 11 11 11 11 11
16 16 16 16 16 15 15 15 15 15 15 14 14 14 14 14 14 13 13 13 13 13 13 12 12 12 12 12 12 11 11 11 11 11 11 11 11 11 11 11 10 10 10
16 16 16 16 15 15 15 15 15 15 14 14 14 14 14 14 13 13 13 13 13 13 12 12 12 12 12 11 11 11 11 11 11 11 10 11 11 11 11 10 10 10 10
16 16 16 15 15 15 15 15 15 14 14 14 14 14 14 14 13 13 13 13 13 12 12 12 12 12 11 11 11 11 11 10 10 11 10 10 10 10 10 10 10 10 10
16 16 15 15 15 15 15 14 14 14 14 14 14 14 13 13 13 13 13 12 12 12 12 12 12 11 11 11 11 10 10 10 10 9 10 9 9 9 9 9 9 9 9
Wind_Speed
2 2 2 4 4 6 6 5 6 6 6 7 7 7 7 7 7 7 8 10 11 11 11 11 11 11 11 11 10 10 9 8 7 7 7 7 6 6 6 6 6 6 6
4 3 3 4 5 6 7 7 6 5 5 6 6 7 7 7 8 9 9 10 12 13 13 13 13 13 13 13 12 11 10 9 9 8 8 7 7 7 6 6 6 6 6
6 5 3 3 4 7 8 8 7 7 5 6 7 7 7 7 8 8 9 10 10 13 14 14 14 14 14 14 13 12 12 10 9 9 9 8 8 7 6 6 6 6 6
8 7 4 3 6 8 7 5 4 6 6 5 6 5 5 6 8 9 10 10 10 11 13 14 14 15 15 14 14 13 12 11 10 10 10 10 9 8 7 7 7 7 7
9 8 5 4 7 6 4 5 4 4 5 5 6 6 6 5 5 8 8 10 10 11 11 12 14 15 15 15 14 13 12 12 11 11 11 10 10 9 9 9 8 8 8
9 8 6 6 7 5 5 5 5 4 4 4 7 7 6 6 6 6 6 9 10 10 11 11 11 12 15 15 15 14 13 12 12 11 10 10 10 10 10 9 9 8 8
8 8 5 5 5 5 4 5 5 6 4 4 5 5 6 7 7 6 6 6 8 10 12 12 11 11 11 14 15 15 14 12 11 11 11 11 11 10 10 10 9 9 9
7 7 6 4 4 5 5 5 4 3 2 2 3 3 3 5 5 6 5 5 5 8 9 11 12 12 12 11 13 15 15 14 12 11 11 11 12 12 11 10 10 10 10
8 7 6 5 4 4 4 3 4 4 2 1 2 3 3 2 1 4 5 5 5 5 6 9 11 11 12 12 11 13 15 15 14 12 12 11 11 12 12 12 11 10 10
7 7 6 6 4 3 3 2 3 3 3 1 1 2 2 4 3 1 3 4 5 5 5 6 8 10 11 11 12 14 15 15 14 13 12 12 11 11 11 11 12 12 12
6 6 6 6 4 3 3 3 3 3 2 2 1 2 3 3 3 3 1 2 4 4 3 4 6 8 9 10 11 13 15 15 14 13 12 12 12 12 12 12 12 12 12
3 4 6 5 4 3 3 3 3 4 3 3 2 2 3 2 2 3 3 1 1 2 3 3 4 5 7 9 9 11 13 14 14 14 13 12 12 12 12 12 12 12 12
1 1 3 3 3 3 4 4 4 4 3 4 3 2 2 2 2 3 4 2 1 1 2 3 3 4 6 7 8 9 10 11 12 12 13 12 12 12 12 12 12 12 12
2 2 3 4 4 4 5 5 4 3 4 4 4 4 3 2 2 3 4 4 2 2 2 2 2 4 4 5 6 8 8 9 10 10 11 11 11 12 12 11 11 12 12
2 3 4 4 4 5 5 5 4 3 4 4 4 4 4 3 3 3 3 4 4 2 1 2 2 2 3 3 4 5 6 7 7 8 8 9 10 10 10 10 10 10 11
3 4 3 3 3 4 4 4 4 3 5 4 3 5 4 3 3 3 3 2 3 4 1 2 2 2 2 3 4 4 4 5 5 6 6 7 8 8 8 8 8 9 9
4 4 4 4 4 3 3 4 3 4 5 4 4 4 4 3 3 3 3 3 3 3 3 1 1 1 2 2 3 4 4 4 4 5 5 5 6 7 6 7 6 6 7
4 5 4 5 4 3 3 4 3 4 4 4 3 4 3 3 4 3 3 3 2 2 4 2 1 1 1 1 1 2 4 3 3 4 4 5 4 4 5 5 5 5 5
4 4 5 5 4 3 4 3 3 3 3 3 3 3 3 4 3 2 3 3 2 2 2 3 1 1 1 1 2 2 3 3 4 4 4 4 4 4 5 5 4 4 5
5 4 4 4 4 4 4 3 3 3 3 2 2 3 3 4 3 3 3 2 2 3 2 2 1 0 1 1 1 1 2 3 3 4 4 4 3 4 4 5 5 5 5
6 5 4 3 3 4 4 4 4 4 4 3 2 2 2 3 4 4 3 3 3 3 2 2 1 1 1 1 1 1 1 2 3 2 2 3 3 4 5 5 5 5 5
5 5 5 4 4 3 5 7 6 5 4 4 3 1 1 2 3 4 4 5 5 4 3 2 1 1 2 2 1 1 0 1 3 2 1 3 2 3 6 7 7 6 5
5 5 5 5 4 4 6 8 8 6 5 4 4 2 1 1 2 2 2 2 1 3 5 4 3 3 3 3 2 1 1 2 3 3 0 3 2 3 7 9 9 8 7
5 5 5 5 4 4 6 8 9 5 4 3 4 4 3 3 2 3 3 1 1 2 2 2 4 4 4 4 4 3 3 1 2 2 1 2 3 3 5 8 10 10 10
5 5 4 5 5 4 5 7 7 4 2 2 2 2 3 4 4 5 4 2 2 3 3 4 5 5 5 4 4 3 1 1 2 3 1 2 3 3 3 4 8 10 11
5 5 4 4 5 4 4 6 6 3 2 2 2 2 4 4 5 5 5 4 4 4 2 1 2 3 3 4 4 4 4 2 2 3 2 2 2 2 4 3 4 7 8
Wind_Direction
92 86 81 79 77 83 78 71 70 70 71 70 78 84 85 86 78 71 69 73 72 75 78 77 73 68 65 65 70 69 65 60 57 56 56 58 61 61 61 62 62 55 52
96 89 76 72 74 84 88 86 82 78 71 71 69 77 80 84 79 71 68 69 70 72 72 71 68 66 64 64 63 63 60 57 58 58 56 56 59 61 59 60 63 59 53
87 89 76 71 75 88 90 84 75 73 71 67 60 64 69 73 78 72 69 66 65 66 68 68 65 62 60 59 58 58 57 56 59 58 58 57 58 60 60 63 64 65 61
86 88 81 74 84 88 87 83 74 77 70 66 61 53 55 65 71 72 70 66 63 60 60 62 61 58 57 56 56 56 55 55 57 58 57 56 58 59 64 65 65 64 62
83 88 84 88 90 83 76 90 75 84 85 76 72 58 47 49 56 72 69 66 64 62 59 59 58 55 54 53 51 51 53 54 55 57 57 56 57 61 65 69 63 60 59
77 84 84 84 89 82 75 82 84 73 83 87 83 64 46 43 48 54 63 64 63 61 59 56 52 49 49 49 47 46 47 52 53 55 56 57 59 61 66 66 62 60 58
76 84 85 80 85 88 93 97 95 83 73 87 84 61 39 40 45 41 49 57 55 57 59 57 54 50 45 43 42 43 43 47 52 55 57 57 58 61 63 64 61 61 59
77 92 92 90 92 95 90 93 99 96 81 66 101 94 55 24 21 29 33 51 48 53 57 57 56 53 48 42 38 41 42 46 51 55 59 61 61 61 62 63 61 59 58
76 89 99 99 97 103 110 107 111 114 118 36 81 125 126 149 23 7 22 33 37 42 47 53 53 51 47 43 39 40 43 46 50 57 60 62 63 62 63 63 60 57 55
70 81 96 102 97 97 107 119 118 120 124 114 34 61 124 143 135 80 3 9 29 40 37 48 48 47 46 44 43 43 45 47 49 54 57 61 63 63 61 59 57 56 54
57 74 90 97 97 98 107 97 96 102 117 132 126 100 81 73 92 125 112 349 10 14 24 38 45 45 43 43 44 46 46 47 50 52 55 57 60 60 60 58 58 56 55
33 56 82 89 95 97 106 106 99 99 102 102 102 108 125 130 135 123 132 120 20 347 7 22 36 38 41 42 43 46 47 47 49 51 52 55 57 56 55 55 54 53 53
61 49 78 86 86 94 98 98 94 89 93 99 101 99 104 123 138 129 123 129 78 338 355 5 9 25 36 40 40 43 46 47 48 51 51 52 54 53 50 50 49 48 49
173 140 102 94 94 97 92 88 85 87 90 94 94 96 90 88 109 125 136 134 94 18 9 337 343 10 22 33 37 41 42 44 48 53 52 51 51 52 50 49 48 47 47
161 137 113 99 91 93 91 92 84 82 88 87 92 89 85 72 83 96 120 133 136 129 311 294 313 329 358 26 28 34 35 42 48 53 52 51 49 49 48 47 47 46 45
147 136 120 110 98 88 90 89 89 88 90 82 88 87 77 69 71 75 100 104 116 137 162 262 260 284 353 29 26 31 27 33 37 43 46 44 43 42 41 42 41 40 40
151 150 147 133 121 107 101 100 96 96 95 86 83 94 90 89 83 72 82 90 94 112 124 292 321 337 18 14 18 22 18 22 19 25 32 33 35 34 35 36 35 34 32
152 149 145 138 134 126 117 117 118 110 113 113 110 101 94 97 84 75 84 88 97 113 132 150 297 344 337 318 353 360 8 6 5 5 8 9 9 14 17 19 22 21 18
147 140 142 146 150 146 137 130 129 128 133 140 140 130 123 112 100 90 93 95 94 93 102 134 187 295 315 347 14 356 358 355 346 342 346 351 358 4 4 4 2 1 0
152 154 157 155 155 149 144 139 133 129 128 129 136 143 144 144 150 138 114 117 111 97 91 98 103 327 310 339 39 355 339 333 325 340 340 343 356 358 353 351 347 346 343
160 158 150 148 146 146 155 150 145 137 130 121 114 137 152 151 151 150 143 150 132 114 103 92 86 38 354 346 280 270 292 313 306 308 329 321 323 323 317 319 322 329 333
159 152 159 158 155 163 159 157 150 145 145 147 149 147 139 130 154 159 153 152 149 145 152 146 163 193 245 227 215 197 201 2 309 302 333 302 305 292 285 286 290 299 311
162 160 168 163 169 181 162 156 151 146 153 165 172 178 172 150 139 136 135 126 161 175 166 161 173 208 215 215 173 163 194 206 243 270 15 285 298 291 285 285 283 286 297
165 170 174 174 177 195 176 164 156 144 154 176 187 190 191 205 191 165 156 150 280 272 231 186 194 211 212 199 182 188 200 225 290 296 168 266 288 285 293 285 284 285 289
171 175 174 174 180 208 193 177 159 146 158 199 209 202 200 213 220 179 162 186 262 292 291 248 240 241 242 224 177 114 92 49 313 295 241 235 281 296 293 289 290 289 287
178 171 174 182 184 202 198 183 167 159 179 222 249 252 235 220 209 185 180 187 223 254 262 324 301 289 274 252 220 190 184 190 244 278 259 218 273 314 310 297 301 294 291
Height
1556 1556 1555 1555 1554 1554 1554 1554 1554 1554 1554 1554 1554 1554 1554 1554 1554 1554 1554 1553 1553 1552 1552 1551 1550 1549 1548 1547 1546 1546 1546 1545 1545 1545 1544 1544 1544 1544 1544 1543 1543 1543 1543
1557 1557 1556 1556 1556 1556 1556 1555 1555 1555 1555 1556 1556 1556 1556 1556 1556 1555 1555 1555 1554 1554 1553 1552 1552 1551 1550 1548 1548 1547 1547 1546 1545 1545 1544 1544 1544 1544 1544 1543 1543 1543 1543
1558 1558 1558 1557 1557 1557 1557 1557 1557 1557 1557 1557 1558 1558 1557 1557 1557 1557 1557 1556 1556 1556 1555 1554 1553 1552 1551 1550 1549 1548 1547 1547 1546 1545 1545 1544 1544 1543 1544 1544 1543 1543 1543
1559 1559 1559 1559 1559 1559 1559 1559 1559 1559 1559 1559 1559 1559 1559 1559 1559 1559 1559 1558 1558 1557 1557 1556 1555 1554 1553 1552 1551 1550 1549 1548 1547 1546 1545 1545 1544 1544 1544 1544 1544 1544 1543
1561 1560 1560 1560 1560 1560 1560 1560 1561 1561 1561 1561 1561 1561 1561 1561 1561 1561 1560 1560 1559 1559 1558 1558 1557 1556 1555 1554 1553 1551 1550 1549 1548 1547 1546 1546 1545 1545 1544 1544 1544 1544 1543
1562 1561 1561 1561 1561 1561 1562 1562 1562 1562 1562 1562 1563 1563 1563 1563 1563 1563 1562 1562 1561 1561 1560 1560 1559 1558 1557 1556 1554 1553 1551 1550 1549 1548 1547 1547 1546 1546 1545 1545 1544 1544 1543
1563 1563 1562 1562 1562 1563 1563 1563 1563 1563 1564 1564 1564 1565 1565 1566 1565 1565 1565 1564 1564 1563 1562 1562 1560 1559 1558 1557 1556 1554 1553 1551 1550 1549 1548 1548 1547 1547 1546 1546 1545 1545 1544
1563 1564 1564 1563 1564 1564 1564 1564 1565 1565 1565 1565 1566 1566 1567 1569 1567 1567 1567 1566 1565 1565 1564 1563 1562 1561 1560 1558 1557 1555 1553 1551 1550 1549 1549 1549 1548 1548 1547 1547 1546 1546 1545
1564 1565 1565 1565 1565 1565 1565 1565 1566 1566 1566 1567 1567 1567 1567 1568 1568 1569 1568 1568 1567 1567 1566 1565 1564 1563 1562 1560 1558 1557 1555 1552 1551 1550 1550 1550 1550 1549 1549 1548 1547 1546 1545
1566 1566 1566 1566 1566 1566 1566 1566 1567 1567 1567 1567 1568 1568 1568 1568 1568 1569 1570 1569 1569 1568 1567 1567 1565 1564 1563 1562 1560 1559 1557 1555 1553 1552 1551 1551 1551 1550 1550 1549 1548 1547 1546
1567 1567 1567 1567 1567 1567 1568 1568 1568 1568 1568 1568 1568 1568 1568 1568 1569 1569 1569 1570 1570 1569 1569 1568 1567 1566 1564 1563 1562 1560 1558 1557 1555 1554 1554 1553 1552 1551 1551 1550 1549 1548 1548
1568 1568 1568 1568 1568 1568 1569 1569 1569 1568 1569 1569 1569 1569 1569 1569 1569 1569 1569 1570 1570 1570 1569 1569 1568 1567 1566 1564 1563 1561 1560 1559 1557 1556 1555 1554 1554 1553 1552 1551 1550 1549 1548
1569 1569 1569 1569 1569 1569 1569 1569 1569 1569 1569 1569 1569 1569 1569 1569 1570 1570 1569 1569 1570 1570 1570 1570 1568 1568 1566 1565 1564 1563 1561 1560 1559 1558 1557 1556 1555 1554 1553 1552 1550 1550 1549
1570 1570 1570 1570 1570 1570 1570 1570 1570 1570 1570 1570 1570 1570 1570 1570 1570 1570 1570 1570 1570 1570 1570 1570 1569 1568 1567 1566 1565 1564 1563 1561 1560 1559 1558 1557 1556 1555 1554 1553 1551 1550 1549
1570 1571 1571 1571 1571 1571 1571 1571 1571 1571 1571 1571 1571 1571 1571 1571 1571 1571 1571 1571 1571 1570 1570 1570 1569 1568 1567 1566 1566 1564 1563 1562 1561 1560 1559 1558 1557 1555 1554 1553 1552 1551 1550
1571 1571 1571 1572 1571 1572 1572 1572 1571 1571 1571 1571 1571 1571 1571 1571 1571 1571 1571 1571 1571 1570 1570 1570 1569 1568 1568 1567 1566 1565 1564 1563 1562 1561 1559 1558 1557 1556 1555 1554 1552 1551 1550
1571 1571 1572 1572 1572 1572 1572 1572 1572 1572 1572 1572 1572 1572 1571 1571 1571 1571 1571 1571 1570 1570 1569 1569 1569 1568 1567 1566 1566 1565 1564 1563 1562 1561 1560 1559 1557 1556 1555 1554 1552 1551 1550
1571 1571 1572 1572 1572 1572 1572 1572 1572 1572 1572 1572 1572 1572 1572 1571 1571 1571 1571 1571 1570 1570 1569 1568 1568 1568 1567 1566 1565 1565 1564 1563 1562 1561 1560 1558 1557 1556 1555 1553 1552 1550 1549
1571 1571 1571 1572 1572 1572 1572 1572 1572 1572 1572 1572 1572 1572 1572 1571 1571 1571 1571 1570 1570 1569 1569 1567 1567 1566 1566 1565 1565 1564 1564 1563 1562 1560 1559 1558 1557 1555 1554 1553 1551 1549 1548
1570 1571 1571 1571 1572 1572 1572 1572 1572 1572 1572 1572 1572 1572 1572 1571 1571 1571 1570 1570 1570 1569 1568 1567 1566 1565 1564 1564 1564 1563 1562 1562 1560 1559 1558 1557 1556 1554 1553 1551 1550 1548 1547
1569 1570 1570 1571 1571 1571 1572 1572 1572 1572 1572 1572 1572 1572 1571 1571 1571 1570 1570 1569 1569 1568 1567 1566 1565 1564 1563 1562 1562 1562 1561 1560 1559 1558 1557 1556 1554 1553 1551 1550 1548 1546 1545
1568 1569 1569 1570 1570 1571 1571 1571 1571 1571 1571 1571 1571 1571 1571 1571 1570 1570 1569 1569 1568 1567 1566 1565 1564 1563 1563 1562 1561 1560 1559 1558 1557 1557 1555 1554 1552 1551 1549 1548 1546 1544 1542
1566 1567 1568 1569 1569 1570 1570 1570 1570 1571 1571 1571 1571 1570 1570 1570 1569 1569 1568 1568 1567 1566 1566 1565 1563 1563 1562 1561 1560 1559 1558 1557 1555 1554 1552 1550 1550 1548 1547 1545 1544 1542 1540
1564 1565 1566 1567 1568 1568 1569 1569 1569 1569 1569 1569 1569 1569 1569 1568 1568 1567 1567 1566 1566 1565 1564 1563 1562 1561 1561 1560 1558 1557 1556 1554 1553 1552 1550 1548 1546 1545 1543 1542 1540 1538 1536
1561 1563 1564 1565 1566 1566 1567 1568 1568 1568 1568 1568 1568 1568 1567 1567 1566 1566 1565 1564 1564 1563 1563 1562 1561 1560 1559 1557 1556 1555 1553 1551 1549 1549 1548 1545 1543 1540 1539 1538 1536 1535 1533
1559 1560 1561 1562 1563 1564 1565 1565 1565 1565 1565 1566 1566 1566 1565 1565 1565 1564 1563 1562 1561 1561 1560 1559 1558 1557 1556 1555 1553 1552 1551 1549 1547 1545 1544 1542 1540 1537 1534 1533 1532 1530 1529